Weather in San Francisco de Macoris

Dominican Republic     19°17′34″N   70°14′59″W
temp.,
°C
wind,
m/s
gust,
m/s
humid.,
%
clouds,
%
prec.,
mm/h
press.,
hPa
HPBL,
m
28 november, sun
sun2823:00+23wnw117994 0.0 101618
02:00+22nnw118176 0.0 101513
05:00+19w119299 0.0 101511
08:00+21nw1187100 0.0 101656
11:00+26se126519 0.0 1016809
14:00+29sse23525 0.0 10131253
17:00+27ene466512 0.0 1012465
20:00+22ene22908 0.1 101537
29 november, mon
mon2923:00+21s019412 0.1 101511
02:00+20ese11967 0.1 101411
05:00+20nnw01964 0.0 101411
08:00+21wnw00945 0.0 101560
11:00+27se12673 0.0 1016700
14:00+29sse22515 0.0 1012895
17:00+28e12605 0.0 1012156
20:00+22nne11865 0.1 101519
30 november, tue
tue3023:00+21nnw11895 0.1 101511
02:00+20nw229240 0.1 101529
05:00+20nw229433 0.0 101525
08:00+21wnw1288100 0.0 101776
11:00+28ese016456 0.0 10171036
14:00+30se235523 0.1 10141412
17:00+27ne466863 0.2 1014537
20:00+22nne119052 0.3 101723
1 december, wed
wed123:00+20nw119395 0.0 101711
02:00+20nw119429 0.0 101611
05:00+20wnw119365 0.0 101618
08:00+22w228597 0.0 1018101
11:00+27sw126417 0.0 1019892
14:00+28ese236094 0.4 10151045
17:00+27ene4667100 0.3 1015449
20:00+22ne2291100 0.4 101732
2 december, thu
thu223:00+21nw119447 0.1 101811
02:00+21nne009594 0.1 101711
05:00+20w009616 0.0 101611
08:00+21ssw119427 0.0 101770
11:00+27se247175 0.0 1017825
14:00+30se345696 0.1 10141387
17:00+28e46665 0.0 1013489
20:00+23e118926 0.1 101513